| time (UTC) | temp C | wind direction | speed KPH | gust KPH | rain 1hr cm | rain 24hr cm | rain mn cm | humidity % | barometer mb |
| 20260506141018 | 25 | 232 | 6.4 | 11.3 | 0.00 | 0.00 | 0.00 | 40 | 1006.9 |
| 20260506140518 | 25 | 226 | 4.8 | 16.1 | 0.00 | 0.00 | 0.00 | 40 | 1007.0 |
| 20260506140015 | 25 | 203 | 4.8 | 12.9 | 0.00 | 0.00 | 0.00 | 39 | 1006.8 |
| 20260506135534 | 25 | 212 | 9.7 | 17.7 | 0.00 | 0.00 | 0.00 | 40 | 1006.8 |
| 20260506135032 | 25 | 213 | 4.8 | 11.3 | 0.00 | 0.00 | 0.00 | 41 | 1006.8 |
| 20260506134531 | 25 | 223 | 6.4 | 14.5 | 0.00 | 0.00 | 0.00 | 41 | 1006.8 |
| 20260506134029 | 26 | 210 | 6.4 | 9.7 | 0.00 | 0.00 | 0.00 | 41 | 1006.7 |
| 20260506133529 | 26 | 219 | 6.4 | 12.9 | 0.00 | 0.00 | 0.00 | 40 | 1006.7 |
| 20260506133026 | 26 | 215 | 6.4 | 22.5 | 0.00 | 0.00 | 0.00 | 40 | 1006.7 |
| 20260506132525 | 25 | 198 | 9.7 | 16.1 | 0.00 | 0.00 | 0.00 | 41 | 1006.7 |
| 20260506132023 | 25 | 207 | 8.0 | 17.7 | 0.00 | 0.00 | 0.00 | 41 | 1006.7 |
| 20260506131522 | 25 | 205 | 6.4 | 16.1 | 0.00 | 0.00 | 0.00 | 41 | 1006.7 |
| 20260506131021 | 25 | 204 | 4.8 | 14.5 | 0.00 | 0.00 | 0.00 | 43 | 1006.7 |
| 20260506130519 | 25 | 218 | 9.7 | 17.7 | 0.00 | 0.00 | 0.00 | 42 | 1006.8 |
| 20260506130018 | 25 | 216 | 9.7 | 19.3 | 0.00 | 0.00 | 0.00 | 42 | 1006.8 |
| 20260506125516 | 25 | 216 | 9.7 | 20.9 | 0.00 | 0.00 | 0.00 | 41 | 1006.9 |
| 20260506125035 | 25 | 209 | 9.7 | 20.9 | 0.00 | 0.00 | 0.00 | 41 | 1006.8 |
| 20260506124535 | 25 | 200 | 8.0 | 16.1 | 0.00 | 0.00 | 0.00 | 41 | 1006.8 |
| 20260506124032 | 26 | 225 | 9.7 | 20.9 | 0.00 | 0.00 | 0.00 | 40 | 1006.8 |
| 20260506123531 | 26 | 210 | 6.4 | 14.5 | 0.00 | 0.00 | 0.00 | 40 | 1006.8 |
| 20260506123029 | 25 | 213 | 8.0 | 16.1 | 0.00 | 0.00 | 0.00 | 42 | 1006.9 |
| 20260506122528 | 25 | 227 | 9.7 | 24.1 | 0.00 | 0.00 | 0.00 | 41 | 1006.9 |
| 20260506122026 | 25 | 223 | 8.0 | 22.5 | 0.00 | 0.00 | 0.00 | 40 | 1006.8 |
| 20260506121526 | 25 | 211 | 11.3 | 24.1 | 0.00 | 0.00 | 0.00 | 41 | 1006.6 |
| 20260506121024 | 26 | 198 | 9.7 | 24.1 | 0.00 | 0.00 | 0.00 | 40 | 1006.7 |
| 20260506120522 | 26 | 223 | 8.0 | 17.7 | 0.00 | 0.00 | 0.00 | 40 | 1006.8 |
| 20260506120021 | 26 | 209 | 8.0 | 19.3 | 0.00 | 0.00 | 0.00 | 40 | 1006.7 |
| 20260506115518 | 25 | 208 | 8.0 | 17.7 | 0.00 | 0.00 | 0.00 | 41 | 1006.5 |
| 20260506115017 | 26 | 215 | 11.3 | 20.9 | 0.00 | 0.00 | 0.00 | 39 | 1006.7 |
| 20260506114517 | 25 | 205 | 8.0 | 14.5 | 0.00 | 0.00 | 0.00 | 40 | 1006.7 |
| 20260506114034 | 25 | 210 | 11.3 | 20.9 | 0.00 | 0.00 | 0.00 | 39 | 1006.6 |
| 20260506113533 | 25 | 197 | 11.3 | 29.0 | 0.00 | 0.00 | 0.00 | 39 | 1006.6 |
| 20260506113031 | 25 | 189 | 11.3 | 22.5 | 0.00 | 0.00 | 0.00 | 38 | 1006.6 |
| 20260506112530 | 25 | 194 | 12.9 | 30.6 | 0.00 | 0.00 | 0.00 | 38 | 1006.5 |
| 20260506112029 | 25 | 223 | 6.4 | 12.9 | 0.00 | 0.00 | 0.00 | 37 | 1006.6 |
| 20260506111527 | 26 | 205 | 9.7 | 19.3 | 0.00 | 0.00 | 0.00 | 37 | 1006.6 |
| 20260506111026 | 25 | 201 | 11.3 | 24.1 | 0.00 | 0.00 | 0.00 | 37 | 1006.5 |
| 20260506110524 | 26 | 195 | 8.0 | 17.7 | 0.00 | 0.00 | 0.00 | 37 | 1006.6 |
| 20260506110023 | 25 | 184 | 8.0 | 14.5 | 0.00 | 0.00 | 0.00 | 37 | 1006.5 |
| 20260506105522 | 25 | 197 | 8.0 | 17.7 | 0.00 | 0.00 | 0.00 | 37 | 1006.6 |
| 20260506105020 | 25 | 197 | 11.3 | 22.5 | 0.00 | 0.00 | 0.00 | 37 | 1006.5 |
| 20260506104518 | 25 | 201 | 6.4 | 12.9 | 0.00 | 0.00 | 0.00 | 38 | 1006.5 |
| 20260506104016 | 25 | 212 | 4.8 | 9.7 | 0.00 | 0.00 | 0.00 | 38 | 1006.7 |
| 20260506103535 | 25 | 193 | 8.0 | 19.3 | 0.00 | 0.00 | 0.00 | 37 | 1006.7 |
| 20260506103034 | 25 | 211 | 9.7 | 22.5 | 0.00 | 0.00 | 0.00 | 37 | 1006.7 |
| 20260506102532 | 25 | 199 | 6.4 | 20.9 | 0.00 | 0.00 | 0.00 | 37 | 1006.6 |
| 20260506102031 | 25 | 189 | 6.4 | 11.3 | 0.00 | 0.00 | 0.00 | 37 | 1006.7 |
| 20260506101529 | 25 | 187 | 9.7 | 20.9 | 0.00 | 0.00 | 0.00 | 37 | 1006.8 |
| 20260506101028 | 25 | 204 | 6.4 | 12.9 | 0.00 | 0.00 | 0.00 | 37 | 1006.7 |
| 20260506100526 | 25 | 201 | 6.4 | 17.7 | 0.00 | 0.00 | 0.00 | 37 | 1006.7 |
| 20260506100026 | 24 | 192 | 9.7 | 19.3 | 0.00 | 0.00 | 0.00 | 37 | 1006.9 |
| 20260506095524 | 25 | 197 | 9.7 | 19.3 | 0.00 | 0.00 | 0.00 | 36 | 1006.9 |
| 20260506095023 | 25 | 191 | 8.0 | 16.1 | 0.00 | 0.00 | 0.00 | 36 | 1006.9 |
| 20260506094520 | 25 | 209 | 9.7 | 30.6 | 0.00 | 0.00 | 0.00 | 36 | 1006.8 |
| 20260506094019 | 25 | 205 | 9.7 | 20.9 | 0.00 | 0.00 | 0.00 | 36 | 1006.7 |
| 20260506093517 | 25 | 209 | 8.0 | 16.1 | 0.00 | 0.00 | 0.00 | 36 | 1006.7 |
| 20260506093016 | 23 | 187 | 6.4 | 12.9 | 0.00 | 0.00 | 0.00 | 38 | 1006.8 |
| 20260506092534 | 23 | 183 | 8.0 | 20.9 | 0.00 | 0.00 | 0.00 | 38 | 1006.8 |
| 20260506092033 | 24 | 185 | 8.0 | 17.7 | 0.00 | 0.00 | 0.00 | 38 | 1006.8 |
| 20260506091531 | 23 | 211 | 8.0 | 16.1 | 0.00 | 0.00 | 0.00 | 38 | 1006.8 |
| 20260506091030 | 23 | 192 | 8.0 | 19.3 | 0.00 | 0.00 | 0.00 | 38 | 1006.6 |
| 20260506090528 | 23 | 204 | 6.4 | 19.3 | 0.00 | 0.00 | 0.00 | 39 | 1006.7 |
| 20260506090027 | 23 | 161 | 6.4 | 17.7 | 0.00 | 0.00 | 0.00 | 39 | 1006.8 |
| 20260506085526 | 23 | 176 | 8.0 | 14.5 | 0.00 | 0.00 | 0.00 | 39 | 1006.7 |
| 20260506085024 | 23 | 192 | 6.4 | 19.3 | 0.00 | 0.00 | 0.00 | 38 | 1006.6 |
| 20260506084523 | 23 | 217 | 4.8 | 8.0 | 0.00 | 0.00 | 0.00 | 39 | 1006.6 |
| 20260506084022 | 23 | 198 | 4.8 | 9.7 | 0.00 | 0.00 | 0.00 | 39 | 1006.6 |
| 20260506083520 | 23 | 188 | 6.4 | 16.1 | 0.00 | 0.00 | 0.00 | 40 | 1006.6 |
| 20260506083019 | 23 | 184 | 8.0 | 12.9 | 0.00 | 0.00 | 0.00 | 40 | 1006.8 |
| 20260506082517 | 22 | 171 | 6.4 | 14.5 | 0.00 | 0.00 | 0.00 | 40 | 1006.8 |
| 20260506082015 | 22 | 209 | 6.4 | 14.5 | 0.00 | 0.00 | 0.00 | 40 | 1006.8 |
| 20260506081535 | 22 | 205 | 9.7 | 20.9 | 0.00 | 0.00 | 0.00 | 41 | 1006.8 |
| 20260506081032 | 22 | 187 | 11.3 | 20.9 | 0.00 | 0.00 | 0.00 | 41 | 1006.9 |
| 20260506080531 | 22 | 199 | 8.0 | 14.5 | 0.00 | 0.00 | 0.00 | 40 | 1006.9 |
| 20260506073522 | 21 | 208 | 8.0 | 19.3 | 0.00 | 0.00 | 0.00 | 41 | 1007.1 |
| 20260506073022 | 21 | 193 | 9.7 | 16.1 | 0.00 | 0.00 | 0.00 | 42 | 1007.0 |
| 20260506072520 | 21 | 209 | 8.0 | 16.1 | 0.00 | 0.00 | 0.00 | 41 | 1007.0 |
| 20260506072017 | 21 | 207 | 8.0 | 16.1 | 0.00 | 0.00 | 0.00 | 42 | 1006.9 |
| 20260506071516 | 21 | 227 | 8.0 | 17.7 | 0.00 | 0.00 | 0.00 | 42 | 1007.0 |
| 20260506071035 | 21 | 191 | 8.0 | 16.1 | 0.00 | 0.00 | 0.00 | 42 | 1007.0 |
| 20260506070533 | 20 | 185 | 9.7 | 17.7 | 0.00 | 0.00 | 0.00 | 43 | 1007.0 |
| 20260506062021 | 19 | 189 | 6.4 | 14.5 | 0.00 | 0.00 | 0.00 | 45 | 1007.0 |
| 20260506061519 | 19 | 203 | 8.0 | 14.5 | 0.00 | 0.00 | 0.00 | 45 | 1007.2 |
| 20260506061016 | 18 | 195 | 6.4 | 11.3 | 0.00 | 0.00 | 0.00 | 46 | 1007.2 |
| 20260506060535 | 18 | 204 | 6.4 | 12.9 | 0.00 | 0.00 | 0.00 | 45 | 1007.2 |
| 20260506051019 | 16 | 140 | 4.8 | 9.7 | 0.00 | 0.00 | 0.00 | 50 | 1007.3 |
| 20260506050517 | 16 | 158 | 4.8 | 8.0 | 0.00 | 0.00 | 0.00 | 50 | 1007.5 |
| 20260506045034 | 16 | 161 | 4.8 | 9.7 | 0.00 | 0.00 | 0.00 | 51 | 1007.7 |
| 20260506044533 | 16 | 139 | 1.6 | 4.8 | 0.00 | 0.00 | 0.00 | 52 | 1007.7 |
| 20260506044030 | 16 | 142 | 1.6 | 3.2 | 0.00 | 0.00 | 0.00 | 52 | 1007.7 |
| 20260506043529 | 16 | 155 | 3.2 | 6.4 | 0.00 | 0.00 | 0.00 | 52 | 1007.6 |
| 20260506043027 | 16 | 117 | 3.2 | 4.8 | 0.00 | 0.00 | 0.00 | 51 | 1007.6 |
| 20260506042526 | 16 | 115 | 1.6 | 3.2 | 0.00 | 0.00 | 0.00 | 53 | 1007.6 |
| 20260506042024 | 15 | 113 | 1.6 | 3.2 | 0.00 | 0.00 | 0.00 | 55 | 1007.6 |
| 20260506041523 | 15 | 113 | 1.6 | 3.2 | 0.00 | 0.00 | 0.00 | 56 | 1007.7 |
| 20260506041021 | 14 | 157 | 1.6 | 4.8 | 0.00 | 0.00 | 0.00 | 56 | 1007.8 |
| 20260506040520 | 13 | 167 | 3.2 | 6.4 | 0.00 | 0.00 | 0.00 | 57 | 1007.7 |
| 20260506040018 | 13 | 182 | 3.2 | 6.4 | 0.00 | 0.00 | 0.00 | 58 | 1007.7 |
| 20260506035517 | 12 | 183 | 3.2 | 9.7 | 0.00 | 0.00 | 0.00 | 61 | 1007.7 |
| 20260506035036 | 11 | 152 | 1.6 | 4.8 | 0.00 | 0.00 | 0.00 | 67 | 1007.7 |
| 20260506034534 | 10 | 151 | 1.6 | 3.2 | 0.00 | 0.00 | 0.00 | 72 | 1007.7 |
| 20260506034032 | 10 | 136 | 1.6 | 3.2 | 0.00 | 0.00 | 0.00 | 72 | 1007.5 |
| 20260506033531 | 11 | 128 | 1.6 | 3.2 | 0.00 | 0.00 | 0.00 | 71 | 1007.6 |
| 20260506033031 | 10 | 111 | 1.6 | 6.4 | 0.00 | 0.00 | 0.00 | 72 | 1007.4 |
| 20260506032528 | 10 | 0.0 | 1.6 | 0.00 | 0.00 | 0.00 | 71 | 1007.5 | |
| 20260506032027 | 11 | 0.0 | 1.6 | 0.00 | 0.00 | 0.00 | 71 | 1007.5 | |
| 20260506031525 | 11 | 118 | 0.0 | 3.2 | 0.00 | 0.00 | 0.00 | 70 | 1007.6 |
| 20260506031024 | 11 | 127 | 0.0 | 3.2 | 0.00 | 0.00 | 0.00 | 68 | 1007.4 |
| 20260506030522 | 12 | 132 | 0.0 | 3.2 | 0.00 | 0.00 | 0.00 | 66 | 1007.5 |
| 20260506030022 | 12 | 146 | 1.6 | 3.2 | 0.00 | 0.00 | 0.00 | 65 | 1007.5 |
| 20260506025519 | 12 | 163 | 1.6 | 3.2 | 0.00 | 0.00 | 0.00 | 64 | 1007.5 |
| 20260506025018 | 12 | 166 | 1.6 | 6.4 | 0.00 | 0.00 | 0.00 | 63 | 1007.6 |
| 20260506024518 | 12 | 186 | 1.6 | 4.8 | 0.00 | 0.00 | 0.00 | 62 | 1007.6 |
| 20260506024037 | 12 | 166 | 1.6 | 3.2 | 0.00 | 0.00 | 0.00 | 63 | 1007.5 |
| 20260506023533 | 12 | 166 | 1.6 | 4.8 | 0.00 | 0.00 | 0.00 | 62 | 1007.6 |
| 20260506023033 | 12 | 186 | 1.6 | 4.8 | 0.00 | 0.00 | 0.00 | 62 | 1007.6 |
| 20260506022531 | 12 | 174 | 3.2 | 8.0 | 0.00 | 0.00 | 0.00 | 63 | 1007.6 |
| 20260506022029 | 12 | 176 | 1.6 | 4.8 | 0.00 | 0.00 | 0.00 | 64 | 1007.7 |
| 20260506021528 | 12 | 182 | 1.6 | 3.2 | 0.00 | 0.00 | 0.00 | 62 | 1007.7 |
| 20260506021027 | 12 | 209 | 0.0 | 3.2 | 0.00 | 0.00 | 0.00 | 61 | 1007.6 |
| 20260506020525 | 12 | 186 | 1.6 | 3.2 | 0.00 | 0.00 | 0.00 | 62 | 1007.7 |
| 20260506020023 | 13 | 172 | 0.0 | 4.8 | 0.00 | 0.00 | 0.00 | 61 | 1007.8 |
| 20260506015523 | 13 | 213 | 1.6 | 3.2 | 0.00 | 0.00 | 0.00 | 60 | 1007.8 |
| 20260506015022 | 13 | 219 | 1.6 | 4.8 | 0.00 | 0.00 | 0.00 | 60 | 1007.8 |
| 20260506014519 | 13 | 197 | 1.6 | 4.8 | 0.00 | 0.00 | 0.00 | 60 | 1007.8 |
| 20260506014019 | 13 | 197 | 1.6 | 4.8 | 0.00 | 0.00 | 0.00 | 60 | 1007.9 |
| 20260506013516 | 13 | 210 | 1.6 | 4.8 | 0.00 | 0.00 | 0.00 | 60 | 1007.8 |
| 20260506013034 | 13 | 194 | 0.0 | 3.2 | 0.00 | 0.00 | 0.00 | 60 | 1007.8 |
| 20260506012533 | 13 | 216 | 1.6 | 6.4 | 0.00 | 0.00 | 0.00 | 60 | 1007.8 |
| 20260506012032 | 13 | 209 | 1.6 | 4.8 | 0.00 | 0.00 | 0.00 | 60 | 1007.7 |
| 20260506011530 | 13 | 198 | 1.6 | 3.2 | 0.00 | 0.00 | 0.00 | 61 | 1007.8 |
| 20260506011029 | 13 | 201 | 1.6 | 4.8 | 0.00 | 0.00 | 0.00 | 60 | 1007.7 |
| 20260506010528 | 13 | 216 | 1.6 | 4.8 | 0.00 | 0.00 | 0.00 | 61 | 1007.7 |
| 20260506010026 | 13 | 200 | 1.6 | 4.8 | 0.00 | 0.00 | 0.00 | 60 | 1007.7 |
| 20260506005524 | 13 | 205 | 1.6 | 4.8 | 0.00 | 0.00 | 0.00 | 59 | 1007.6 |
| 20260506005023 | 13 | 195 | 1.6 | 4.8 | 0.00 | 0.00 | 0.00 | 60 | 1007.6 |
| 20260506004523 | 13 | 229 | 0.0 | 3.2 | 0.00 | 0.00 | 0.00 | 59 | 1007.7 |
| 20260506004020 | 13 | 201 | 1.6 | 3.2 | 0.00 | 0.00 | 0.00 | 59 | 1007.6 |
| 20260506003518 | 13 | 207 | 0.0 | 4.8 | 0.00 | 0.00 | 0.00 | 59 | 1007.7 |
| 20260506003018 | 13 | 198 | 1.6 | 4.8 | 0.00 | 0.00 | 0.00 | 58 | 1007.8 |
| 20260506002515 | 13 | 205 | 1.6 | 6.4 | 0.00 | 0.00 | 0.00 | 58 | 1007.6 |
| 20260506002034 | 13 | 216 | 1.6 | 4.8 | 0.00 | 0.00 | 0.00 | 58 | 1007.7 |
| 20260506001532 | 13 | 209 | 1.6 | 3.2 | 0.00 | 0.00 | 0.00 | 58 | 1007.7 |
| 20260506001032 | 13 | 203 | 1.6 | 3.2 | 0.00 | 0.00 | 0.00 | 58 | 1007.7 |
| 20260506000529 | 13 | 211 | 1.6 | 3.2 | 0.00 | 0.00 | 0.00 | 59 | 1007.6 |
| 20260506000029 | 13 | 199 | 0.0 | 3.2 | 0.00 | 0.00 | 0.00 | 59 | 1007.7 |
| 20260505235528 | 13 | 205 | 1.6 | 4.8 | 0.00 | 0.00 | 0.00 | 58 | 1007.7 |
| 20260505235027 | 14 | 204 | 1.6 | 8.0 | 0.00 | 0.00 | 0.00 | 58 | 1007.8 |
| 20260505234524 | 14 | 200 | 1.6 | 4.8 | 0.00 | 0.00 | 0.00 | 57 | 1007.8 |
| 20260505234023 | 14 | 215 | 1.6 | 4.8 | 0.00 | 0.00 | 0.00 | 57 | 1007.7 |
| 20260505233522 | 14 | 206 | 3.2 | 4.8 | 0.00 | 0.00 | 0.00 | 57 | 1007.7 |
| 20260505233019 | 13 | 212 | 1.6 | 4.8 | 0.00 | 0.00 | 0.00 | 58 | 1007.7 |
| 20260505232518 | 13 | 208 | 1.6 | 3.2 | 0.00 | 0.00 | 0.00 | 58 | 1007.7 |
| 20260505232018 | 13 | 208 | 1.6 | 3.2 | 0.00 | 0.00 | 0.00 | 60 | 1007.7 |
| 20260505231535 | 12 | 200 | 0.0 | 3.2 | 0.00 | 0.00 | 0.00 | 62 | 1007.9 |
| 20260505231033 | 13 | 150 | 1.6 | 3.2 | 0.00 | 0.00 | 0.00 | 61 | 1007.8 |
| 20260505230534 | 13 | 169 | 0.0 | 3.2 | 0.00 | 0.00 | 0.00 | 59 | 1007.7 |
| 20260505230030 | 13 | 188 | 0.0 | 3.2 | 0.00 | 0.00 | 0.00 | 58 | 1007.7 |
| 20260505225531 | 14 | 158 | 1.6 | 3.2 | 0.00 | 0.00 | 0.00 | 56 | 1007.7 |
| 20260505225028 | 15 | 195 | 1.6 | 4.8 | 0.00 | 0.00 | 0.00 | 55 | 1007.8 |
| 20260505224526 | 15 | 193 | 0.0 | 3.2 | 0.00 | 0.00 | 0.00 | 54 | 1007.8 |
| 20260505224025 | 15 | 212 | 1.6 | 3.2 | 0.00 | 0.00 | 0.00 | 53 | 1007.8 |
| 20260505223524 | 15 | 223 | 1.6 | 4.8 | 0.00 | 0.00 | 0.00 | 52 | 1007.7 |
| 20260505223022 | 15 | 203 | 1.6 | 4.8 | 0.00 | 0.00 | 0.00 | 52 | 1007.8 |
| 20260505222520 | 16 | 211 | 1.6 | 3.2 | 0.00 | 0.00 | 0.00 | 52 | 1007.7 |
| 20260505222020 | 16 | 201 | 1.6 | 3.2 | 0.00 | 0.00 | 0.00 | 51 | 1007.7 |
| 20260505221517 | 16 | 195 | 1.6 | 6.4 | 0.00 | 0.00 | 0.00 | 50 | 1007.8 |
| 20260505221016 | 16 | 208 | 1.6 | 6.4 | 0.00 | 0.00 | 0.00 | 50 | 1007.8 |
| 20260505220535 | 16 | 191 | 1.6 | 4.8 | 0.00 | 0.00 | 0.00 | 49 | 1007.8 |
| 20260505220033 | 17 | 203 | 3.2 | 6.4 | 0.00 | 0.00 | 0.00 | 49 | 1007.8 |
| 20260505215532 | 17 | 215 | 3.2 | 6.4 | 0.00 | 0.00 | 0.00 | 48 | 1007.8 |
| 20260505215030 | 17 | 216 | 4.8 | 8.0 | 0.00 | 0.00 | 0.00 | 47 | 1007.8 |
| 20260505214529 | 17 | 209 | 1.6 | 6.4 | 0.00 | 0.00 | 0.00 | 48 | 1007.8 |
| 20260505214027 | 17 | 199 | 3.2 | 6.4 | 0.00 | 0.00 | 0.00 | 47 | 1007.8 |
| 20260505213526 | 17 | 199 | 3.2 | 8.0 | 0.00 | 0.00 | 0.00 | 47 | 1007.7 |
| 20260505213026 | 17 | 189 | 3.2 | 6.4 | 0.00 | 0.00 | 0.00 | 47 | 1007.8 |
| 20260505212524 | 17 | 192 | 3.2 | 8.0 | 0.00 | 0.00 | 0.00 | 46 | 1007.7 |
| 20260505212023 | 17 | 194 | 3.2 | 6.4 | 0.00 | 0.00 | 0.00 | 46 | 1007.7 |
| 20260505211520 | 18 | 204 | 3.2 | 8.0 | 0.00 | 0.00 | 0.00 | 46 | 1007.7 |
| 20260505211020 | 18 | 195 | 4.8 | 8.0 | 0.00 | 0.00 | 0.00 | 46 | 1007.7 |
| 20260505210518 | 18 | 198 | 1.6 | 4.8 | 0.00 | 0.00 | 0.00 | 46 | 1007.6 |
| 20260505210016 | 18 | 199 | 3.2 | 6.4 | 0.00 | 0.00 | 0.00 | 45 | 1007.6 |
| 20260505205534 | 18 | 204 | 3.2 | 6.4 | 0.00 | 0.00 | 0.00 | 45 | 1007.6 |
| 20260505205033 | 18 | 187 | 3.2 | 6.4 | 0.00 | 0.00 | 0.00 | 45 | 1007.6 |
| 20260505204531 | 18 | 201 | 3.2 | 6.4 | 0.00 | 0.00 | 0.00 | 45 | 1007.6 |
| 20260505204030 | 18 | 201 | 3.2 | 11.3 | 0.00 | 0.00 | 0.00 | 44 | 1007.6 |
| 20260505203529 | 18 | 217 | 3.2 | 8.0 | 0.00 | 0.00 | 0.00 | 44 | 1007.7 |
| 20260505203027 | 18 | 197 | 3.2 | 6.4 | 0.00 | 0.00 | 0.00 | 44 | 1007.6 |
| 20260505202526 | 18 | 194 | 3.2 | 6.4 | 0.00 | 0.00 | 0.00 | 45 | 1007.6 |
| 20260505202025 | 19 | 196 | 3.2 | 8.0 | 0.00 | 0.00 | 0.00 | 44 | 1007.6 |
| 20260505201527 | 19 | 191 | 4.8 | 8.0 | 0.00 | 0.00 | 0.00 | 44 | 1007.6 |
| 20260505201022 | 19 | 195 | 3.2 | 8.0 | 0.00 | 0.00 | 0.00 | 44 | 1007.6 |
| 20260505200520 | 18 | 192 | 3.2 | 9.7 | 0.00 | 0.00 | 0.00 | 45 | 1007.6 |
| 20260505200018 | 18 | 204 | 3.2 | 6.4 | 0.00 | 0.00 | 0.00 | 45 | 1007.6 |
| 20260505195516 | 18 | 200 | 3.2 | 8.0 | 0.00 | 0.00 | 0.00 | 47 | 1007.5 |
| 20260505195035 | 17 | 190 | 3.2 | 6.4 | 0.00 | 0.00 | 0.00 | 50 | 1007.5 |
| 20260505194533 | 16 | 179 | 1.6 | 4.8 | 0.00 | 0.00 | 0.00 | 55 | 1007.4 |
| 20260505194032 | 16 | 167 | 1.6 | 3.2 | 0.00 | 0.00 | 0.00 | 57 | 1007.5 |
| 20260505193531 | 16 | 151 | 0.0 | 1.6 | 0.00 | 0.00 | 0.00 | 56 | 1007.5 |
| 20260505193029 | 16 | 137 | 0.0 | 1.6 | 0.00 | 0.00 | 0.00 | 55 | 1007.6 |
| 20260505192527 | 17 | 145 | 0.0 | 3.2 | 0.00 | 0.00 | 0.00 | 55 | 1007.5 |
| 20260505192026 | 17 | 157 | 0.0 | 3.2 | 0.00 | 0.00 | 0.00 | 52 | 1007.4 |
| 20260505191525 | 17 | 172 | 0.0 | 3.2 | 0.00 | 0.00 | 0.00 | 54 | 1007.4 |
| 20260505191023 | 17 | 145 | 1.6 | 3.2 | 0.00 | 0.00 | 0.00 | 59 | 1007.4 |
| 20260505190523 | 17 | 0.0 | 1.6 | 0.00 | 0.00 | 0.00 | 48 | 1007.4 | |
| 20260505190020 | 18 | 173 | 0.0 | 3.2 | 0.00 | 0.00 | 0.00 | 48 | 1007.4 |
| 20260505185519 | 17 | 0.0 | 1.6 | 0.00 | 0.00 | 0.00 | 49 | 1007.4 | |
| 20260505185017 | 17 | 0.0 | 0.0 | 0.00 | 0.00 | 0.00 | 57 | 1007.5 | |
| 20260505184516 | 17 | 155 | 0.0 | 1.6 | 0.00 | 0.00 | 0.00 | 53 | 1007.4 |
| 20260505184035 | 17 | 0.0 | 0.0 | 0.00 | 0.00 | 0.00 | 49 | 1007.5 | |
| 20260505183533 | 17 | 152 | 0.0 | 1.6 | 0.00 | 0.00 | 0.00 | 48 | 1007.5 |
| 20260505183032 | 18 | 164 | 0.0 | 1.6 | 0.00 | 0.00 | 0.00 | 48 | 1007.4 |
| 20260505182530 | 18 | 0.0 | 1.6 | 0.00 | 0.00 | 0.00 | 47 | 1007.4 | |
| 20260505182029 | 18 | 0.0 | 3.2 | 0.00 | 0.00 | 0.00 | 45 | 1007.4 | |
| 20260505181527 | 19 | 0.0 | 0.0 | 0.00 | 0.00 | 0.00 | 44 | 1007.5 | |
| 20260505181026 | 20 | 0.0 | 0.0 | 0.00 | 0.00 | 0.00 | 44 | 1007.5 | |
| 20260505180524 | 20 | 0.0 | 1.6 | 0.00 | 0.00 | 0.00 | 43 | 1007.4 | |
| 20260505180023 | 21 | 0.0 | 0.0 | 0.00 | 0.00 | 0.00 | 40 | 1007.5 | |
| 20260505175521 | 21 | 0.0 | 0.0 | 0.00 | 0.00 | 0.00 | 39 | 1007.6 | |
| 20260505175020 | 21 | 0.0 | 1.6 | 0.00 | 0.00 | 0.00 | 38 | 1007.4 | |
| 20260505174518 | 21 | 228 | 0.0 | 1.6 | 0.00 | 0.00 | 0.00 | 38 | 1007.4 |
| 20260505174017 | 22 | 233 | 0.0 | 1.6 | 0.00 | 0.00 | 0.00 | 37 | 1007.4 |
| 20260505173516 | 22 | 0.0 | 1.6 | 0.00 | 0.00 | 0.00 | 37 | 1007.3 | |
| 20260505173034 | 21 | 0.0 | 1.6 | 0.00 | 0.00 | 0.00 | 37 | 1007.5 | |
| 20260505172533 | 21 | 230 | 0.0 | 1.6 | 0.00 | 0.00 | 0.00 | 36 | 1007.4 |
| 20260505172032 | 21 | 0.0 | 1.6 | 0.00 | 0.00 | 0.00 | 38 | 1007.5 | |
| 20260505171530 | 22 | 0.0 | 0.0 | 0.00 | 0.00 | 0.00 | 38 | 1007.5 | |
| 20260505171030 | 22 | 0.0 | 0.0 | 0.00 | 0.00 | 0.00 | 37 | 1007.5 | |
| 20260505170528 | 22 | 0.0 | 0.0 | 0.00 | 0.00 | 0.00 | 37 | 1007.5 | |
| 20260505170025 | 22 | 278 | 0.0 | 1.6 | 0.00 | 0.00 | 0.00 | 34 | 1007.5 |
| 20260505165524 | 22 | 0.0 | 1.6 | 0.00 | 0.00 | 0.00 | 36 | 1007.4 | |
| 20260505165022 | 23 | 0.0 | 0.0 | 0.00 | 0.00 | 0.00 | 38 | 1007.6 | |
| 20260505164521 | 23 | 0.0 | 0.0 | 0.00 | 0.00 | 0.00 | 37 | 1007.6 | |
| 20260505164019 | 23 | 0.0 | 0.0 | 0.00 | 0.00 | 0.00 | 36 | 1007.7 | |
| 20260505163518 | 23 | 0.0 | 0.0 | 0.00 | 0.00 | 0.00 | 33 | 1007.7 | |
| 20260505163017 | 24 | 0.0 | 1.6 | 0.00 | 0.00 | 0.00 | 31 | 1007.7 | |
| 20260505162535 | 24 | 229 | 0.0 | 1.6 | 0.00 | 0.00 | 0.00 | 30 | 1007.8 |
| 20260505162035 | 24 | 209 | 0.0 | 3.2 | 0.00 | 0.00 | 0.00 | 30 | 1007.8 |
| 20260505161532 | 24 | 197 | 0.0 | 3.2 | 0.00 | 0.00 | 0.00 | 29 | 1007.8 |
| 20260505161031 | 25 | 176 | 0.0 | 3.2 | 0.00 | 0.00 | 0.00 | 29 | 1007.8 |
| 20260505160529 | 25 | 194 | 1.6 | 3.2 | 0.00 | 0.00 | 0.00 | 28 | 1007.9 |
| 20260505153019 | 26 | 182 | 4.8 | 9.7 | 0.00 | 0.00 | 0.00 | 25 | 1008.2 |
| 20260505152518 | 26 | 197 | 4.8 | 11.3 | 0.00 | 0.00 | 0.00 | 25 | 1008.2 |
| 20260505152016 | 26 | 186 | 6.4 | 14.5 | 0.00 | 0.00 | 0.00 | 25 | 1008.3 |
| 20260505151536 | 25 | 178 | 4.8 | 8.0 | 0.00 | 0.00 | 0.00 | 25 | 1008.3 |
| 20260505151033 | 25 | 196 | 4.8 | 9.7 | 0.00 | 0.00 | 0.00 | 25 | 1008.2 |
| 20260505150532 | 25 | 183 | 6.4 | 12.9 | 0.00 | 0.00 | 0.00 | 25 | 1008.3 |